+43 3833 8250 0 office@segelflug.at

Wetter

ACHTUNG: Die hier angeboten Wetter-Informationen sind nicht geeicht und dürfen für Flugvorbereitungen nicht verwendet werden
ACG Flugwetter

METAR/TAF LOXZ

LOXZ 190450Z VRB03KT 10KM FEW003ST BKN009ST 13/12 Q1017

TAF LOXZ 181415Z 1812/1824 CNL

METAR/TAF LOXA

LOXA 100820Z VRB02KT 50KM FEW120AC SCT300CI 17/13 Q1021 NOSIG RMK SCT

TAF TAF LOXA 090515Z 0906/0918 VRB03KT 0500 FG SCT060 BECMG 0906/0908 9999 NSW FEW060 BECMG 0909/0911 04007KT TEMPO 0910/0915 SCT060 BKN100

METAR/TAF LOWG 

LOWG 190450Z VRB01KT CAVOK 18/15 Q1014 NOSIG

TAF TAF LOWG 190515Z 1906/2006 17005KT 9999 FEW060 TX28/1913Z TN16/2003Z TEMPO 1911/1919 FEW050CB SCT080 BKN300 PROB30 TEMPO 1913/1917 VRB15G25KT 6000 TSRA SCT050CB BKN060

(Information der letzten Stunde)

(Information der letzten Stunde)

Dichtehöhe (in LOGT)
Temperatur / Windchill der letzten 10 Tage

Ext. Links zu Wetterdiensten

ALDIS

Öster.- Unwetterzentrale